Home > Time Zones > World Clock > Weather > Spain > Jaén > Past weeks

Flag for Spain Weather past 2 weeks in Jaén, Spain

Now
86 °F

Sunny.


Feels Like: 83 °F
Forecast: 62 / 92 °F
Wind: 2 mph from North

Location: Granada / Aeropuerto

Current Time: Aug 20, 2014 at 2:45:14 PM

Latest Report: Aug 20, 2014 at 2:00 PM


Visibility: 10 mi

Pressure: 30.07 "Hg

Humidity: 20%

Dew point: 41 °F

Location of JaénLocation

Historic Weather in Jaén — Graph

°F

Jaén temperature yesterday

Maximum temperature yesterday: 91 °F (at 2:30 PM)
Minimum temperature yesterday: 61 °F (at 6:00 AM)
Average temperature yesterday: 80 °F

Past Weeks' High & Low Weather Summary

 TemperatureHumidityPressure
High102 °F (Aug 7, 4:30 PM)88% (Aug 16, 6:00 AM)30.12 "Hg (Aug 16, 6:00 AM)
Low54 °F (Aug 20, 7:30 AM)11% (Aug 10, 4:00 PM)29.86 "Hg (Aug 9, 6:00 PM)
Average83 °F38%30.01 "Hg
* Reported Aug 5 1:00 PM — Aug 20 1:30 PM, Jaén, Weather by CustomWeather, © 2014

Note: Actual official high and low records may vary slightly from our data, if they occured in-between our weather recording intervals... More about our weather records

Advertising

Jaén weather history for previous 24 hours

 ConditionsComfort  
Time TempWeatherWind HumidityBarometerVisibility
1:30 PM
Aug 20
84 °FSunny.2 mph29%30.07 "Hg10 mi
1:00 PM82 °FSunny.1 mph28%30.09 "Hg10 mi
12:30 PM81 °FSunny.1 mph30%30.09 "Hg10 mi
12:00 PM77 °FSunny.1 mph32%30.09 "Hg10 mi
11:30 AM73 °FSunny.1 mph38%30.09 "Hg10 mi
11:00 AM72 °FSunny.1 mph44%30.09 "Hg10 mi
10:30 AM68 °FSunny.2 mph49%30.09 "Hg10 mi
10:00 AM66 °FSunny.No wind56%30.09 "Hg10 mi
9:30 AM63 °FSunny.2 mph64%30.09 "Hg10 mi
9:00 AM64 °FSunny.No wind52%30.09 "Hg10 mi
8:30 AM57 °FClear.2 mph59%30.09 "Hg10 mi
8:00 AM54 °FClear.2 mph67%30.07 "Hg10 mi
7:30 AM54 °FClear.No wind63%30.07 "Hg10 mi
7:00 AM55 °FClear.No wind59%30.07 "Hg10 mi
6:30 AM55 °FClear.1 mph63%30.07 "Hg10 mi
6:00 AM55 °FClear.1 mph63%30.07 "Hg10 mi
11:00 PM
Aug 19
75 °FClear.13 mph41%30.04 "Hg10 mi
10:30 PM77 °FClear.10 mph47%30.04 "Hg10 mi
10:00 PM79 °FSunny.8 mph42%30.04 "Hg10 mi
9:30 PM81 °FSunny.9 mph39%30.01 "Hg10 mi
9:00 PM82 °FSunny.9 mph37%30.01 "Hg10 mi
8:30 PM84 °FSunny.12 mph35%29.98 "Hg10 mi
8:00 PM86 °FSunny.13 mph35%29.98 "Hg10 mi
7:30 PM88 °FPassing clouds.14 mph31%29.98 "HgN/A
7:00 PM88 °FPassing clouds.15 mph33%29.98 "HgN/A
6:30 PM90 °FPassing clouds.15 mph31%29.98 "HgN/A
6:00 PM90 °FPassing clouds.14 mph26%29.98 "HgN/A
5:30 PM91 °FPassing clouds.16 mph23%29.95 "HgN/A
5:00 PM91 °FPassing clouds.14 mph26%29.98 "HgN/A
4:30 PM91 °FPassing clouds.14 mph28%29.95 "HgN/A
4:00 PM91 °FPassing clouds.15 mph28%29.98 "HgN/A
3:30 PM91 °FPassing clouds.10 mph28%29.98 "HgN/A
3:00 PM91 °FPassing clouds.10 mph28%29.98 "HgN/A
2:30 PM91 °FPassing clouds.9 mph28%29.98 "HgN/A
2:00 PM90 °FPassing clouds.8 mph31%29.98 "HgN/A
Weather by CustomWeather, © 2014

See weather overviewHow to use our weather pages